TimeICT,TemperatureF,Dew PointF,Humidity,Sea Level PressureIn,VisibilityMPH,Wind Direction,Wind SpeedMPH,Gust SpeedMPH,PrecipitationIn,Events,Conditions,WindDirDegrees,DateUTC
12:00 AM,77.0,73.4,89,29.89,5.6,Calm,Calm,-,N/A,,Mostly Cloudy,0,2012-09-16 17:00:00
12:30 AM,77.0,75.2,94,29.89,5.6,Calm,Calm,-,N/A,,Mostly Cloudy,0,2012-09-16 17:30:00
1:00 AM,78,76,94,29.84,5,Calm,Calm,,,,Mist,,2012-09-16 18:00:00
1:00 AM,77.0,73.4,89,29.89,5.0,Calm,Calm,-,N/A,,Mostly Cloudy,0,2012-09-16 18:00:00
1:30 AM,77.0,75.2,94,29.89,5.0,Calm,Calm,-,N/A,,Mostly Cloudy,0,2012-09-16 18:30:00
2:00 AM,77.0,75.2,94,29.86,5.0,Calm,Calm,-,N/A,,Mostly Cloudy,0,2012-09-16 19:00:00
2:30 AM,77.0,75.2,94,29.86,5.0,Calm,Calm,-,N/A,,Mostly Cloudy,0,2012-09-16 19:30:00
3:00 AM,77.0,75.2,94,29.86,5.0,Calm,Calm,-,N/A,,Mostly Cloudy,0,2012-09-16 20:00:00
3:30 AM,77.0,75.2,94,29.86,5.0,Calm,Calm,-,N/A,,Mostly Cloudy,0,2012-09-16 20:30:00
4:00 AM,77.0,75.2,94,29.86,5.6,Calm,Calm,-,N/A,,Mostly Cloudy,0,2012-09-16 21:00:00
4:30 AM,77.0,73.4,89,29.86,5.6,Calm,Calm,-,N/A,,Mostly Cloudy,0,2012-09-16 21:30:00
5:00 AM,77.0,73.4,89,29.86,5.6,Calm,Calm,-,N/A,,Mostly Cloudy,0,2012-09-16 22:00:00
5:30 AM,75.2,73.4,94,29.86,5.6,Calm,Calm,-,N/A,,Mostly Cloudy,0,2012-09-16 22:30:00
6:00 AM,75.2,73.4,94,29.86,5.6,Calm,Calm,-,N/A,,Mostly Cloudy,0,2012-09-16 23:00:00
6:30 AM,75.2,73.4,94,29.86,5.0,Calm,Calm,-,N/A,,Mostly Cloudy,0,2012-09-16 23:30:00
7:00 AM,77,75,92,29.83,6,Calm,Calm,,,,Scattered Clouds,,2012-09-17 00:00:00
7:00 AM,77.0,75.2,94,29.89,5.6,Calm,Calm,-,N/A,,Mostly Cloudy,0,2012-09-17 00:00:00
7:30 AM,78.8,75.2,89,29.89,5.6,Calm,Calm,-,N/A,,Mostly Cloudy,0,2012-09-17 00:30:00
8:00 AM,80.6,77.0,89,29.89,5.6,East,6.9,-,N/A,,Mostly Cloudy,80,2012-09-17 01:00:00
8:30 AM,82.4,75.2,79,29.92,6.2,East,5.8,-,N/A,,Mostly Cloudy,90,2012-09-17 01:30:00
9:00 AM,84.2,75.2,74,29.92,6.2,East,5.8,-,N/A,,Mostly Cloudy,90,2012-09-17 02:00:00
9:30 AM,82.4,75.2,79,29.89,6.2,East,4.6,-,N/A,,Mostly Cloudy,90,2012-09-17 02:30:00
10:00 AM,73.4,71.6,94,29.95,3.1,WSW,13.8,-,N/A,Rain,Rain,240,2012-09-17 03:00:00
10:30 AM,77.0,71.6,83,29.95,5.0,West,9.2,-,N/A,Rain,Light Rain,270,2012-09-17 03:30:00
11:00 AM,77.0,71.6,83,29.92,5.0,WSW,9.2,-,N/A,,Mostly Cloudy,240,2012-09-17 04:00:00
11:30 AM,77.0,71.6,83,29.92,5.0,WSW,6.9,-,N/A,Rain,Light Rain,240,2012-09-17 04:30:00
12:00 PM,78.8,73.4,83,29.92,5.0,SW,6.9,-,N/A,Rain,Light Rain,230,2012-09-17 05:00:00
12:30 PM,78.8,73.4,83,29.92,5.0,WNW,5.8,-,N/A,Rain,Light Rain,300,2012-09-17 05:30:00
1:00 PM,79,75,83,29.88,5,Calm,Calm,,,Rain,Light Rain,,2012-09-17 06:00:00
1:00 PM,78.8,73.4,83,29.89,5.0,WSW,5.8,-,N/A,Rain,Light Rain,240,2012-09-17 06:00:00
1:30 PM,78.8,73.4,83,29.86,6.2,WSW,3.5,-,N/A,,Mostly Cloudy,240,2012-09-17 06:30:00
2:00 PM,80.6,73.4,79,29.86,6.2,WSW,9.2,-,N/A,,Mostly Cloudy,240,2012-09-17 07:00:00
2:30 PM,80.6,73.4,79,29.86,6.2,West,5.8,-,N/A,,Mostly Cloudy,260,2012-09-17 07:30:00
3:00 PM,80.6,73.4,79,29.83,6.2,WSW,5.8,-,N/A,,Mostly Cloudy,240,2012-09-17 08:00:00
3:30 PM,80.6,73.4,79,29.83,6.2,SW,5.8,-,N/A,,Mostly Cloudy,230,2012-09-17 08:30:00
4:00 PM,80.6,73.4,79,29.83,6.2,SW,3.5,-,N/A,,Mostly Cloudy,230,2012-09-17 09:00:00
4:30 PM,82.4,73.4,74,29.83,6.2,WSW,5.8,-,N/A,,Mostly Cloudy,240,2012-09-17 09:30:00
5:00 PM,80.6,73.4,79,29.83,6.2,WNW,8.1,-,N/A,,Mostly Cloudy,290,2012-09-17 10:00:00
5:30 PM,77.0,71.6,83,29.80,6.2,WSW,3.5,-,N/A,,Mostly Cloudy,240,2012-09-17 10:30:00
6:00 PM,77.0,73.4,89,29.80,6.2,East,3.5,-,N/A,,Mostly Cloudy,90,2012-09-17 11:00:00
6:30 PM,77.0,71.6,83,29.80,6.2,NNW,3.5,-,N/A,,Mostly Cloudy,330,2012-09-17 11:30:00
7:00 PM,77,74,89,29.77,6,Calm,Calm,,,,Partly Cloudy,,2012-09-17 12:00:00
7:00 PM,77.0,71.6,83,29.83,6.2,West,3.5,-,N/A,,Mostly Cloudy,270,2012-09-17 12:00:00
7:30 PM,75.2,71.6,89,29.83,6.2,Calm,Calm,-,N/A,,Mostly Cloudy,0,2012-09-17 12:30:00
8:00 PM,75.2,73.4,94,29.83,6.2,Calm,Calm,-,N/A,,Mostly Cloudy,0,2012-09-17 13:00:00
8:30 PM,75.2,73.4,94,29.86,5.6,Calm,Calm,-,N/A,,Mostly Cloudy,0,2012-09-17 13:30:00
9:00 PM,75.2,73.4,94,29.89,5.6,Calm,Calm,-,N/A,,Mostly Cloudy,0,2012-09-17 14:00:00
9:30 PM,75.2,73.4,94,29.89,5.6,Calm,Calm,-,N/A,,Mostly Cloudy,0,2012-09-17 14:30:00
10:00 PM,75.2,73.4,94,29.89,5.6,Calm,Calm,-,N/A,,Mostly Cloudy,0,2012-09-17 15:00:00
10:30 PM,75.2,73.4,94,29.89,5.6,Calm,Calm,-,N/A,,Mostly Cloudy,0,2012-09-17 15:30:00
11:00 PM,75.2,73.4,94,29.89,5.6,Calm,Calm,-,N/A,,Mostly Cloudy,0,2012-09-17 16:00:00
11:30 PM,75.2,73.4,94,29.89,5.6,Calm,Calm,-,N/A,,Mostly Cloudy,0,2012-09-17 16:30:00